Location: *
(37.4917°N, 71.5558°E)
Time: 20:47:44
(UTC+00:00)

Gbstr 26 Del rocket - Pass Details

Date: 09 April 2020
Orbit: 493 x 1263 km, 51.8° (Epoch: 31 May)

Event Time Altitude Azimuth Distance (km) Brightness Sun altitude
Exits shadow 23:42:00 18° 249° (WSW) 2,182 5.2 -13.0°
Maximum altitude 23:46:45 57° 323° (NW) 995 4.0 -12.1°
Drops below altitude 10° 23:51:53 10° 43° (NE) 2,226 7.0 -11.2°
Sets 23:54:05 0° 47° (NE) 3,041 8.0 -10.8°
